Theta_e
317 319 318 315 316 316 312 312 312 311 312 313 315 316 316 316 315 316 316 319 318 319 332 344 346 349 350 351 351 350 349 353 350 352 351 348 351 347 348 344 341 339 338 338
322 320 319 318 319 320 319 313 313 313 313 313 312 314 316 317 316 316 316 317 318 319 342 342 340 335 348 353 353 352 351 351 351 350 352 349 349 348 346 342 339 338 337 341
322 321 319 320 320 320 318 317 317 315 314 314 314 314 316 317 316 317 317 317 319 318 336 339 336 344 343 340 354 352 352 351 352 351 353 351 350 346 346 339 338 339 341 347
322 320 321 322 320 319 321 318 318 319 320 318 315 323 320 319 316 316 317 317 318 318 325 345 342 339 340 337 345 353 353 352 352 353 352 350 344 348 348 347 350 350 349 347
323 323 324 325 323 321 322 320 320 320 320 322 317 324 322 319 316 317 317 317 319 318 325 341 329 327 329 340 351 353 352 355 354 354 350 342 341 349 352 350 349 348 346 345
320 319 320 323 322 322 319 320 319 320 320 325 320 322 322 320 317 316 317 318 319 318 325 347 328 332 334 340 353 352 352 353 352 352 350 344 342 351 350 348 347 345 343 340
319 319 321 321 324 322 318 323 325 322 325 324 317 321 321 321 317 317 318 318 319 318 333 353 354 346 348 352 353 353 352 351 350 349 345 341 342 349 349 348 344 342 338 336
321 322 323 321 321 323 321 323 324 325 325 322 321 317 319 320 321 318 318 318 318 318 325 352 353 353 354 354 353 353 352 350 350 345 344 342 350 349 349 344 341 338 335 332
321 321 319 321 323 321 324 323 321 322 321 325 325 321 319 319 320 320 318 318 318 318 318 344 350 348 351 353 353 352 352 350 350 345 349 349 349 346 343 340 338 336 333 329
319 324 321 320 321 323 324 324 328 323 334 334 330 324 320 322 320 320 318 318 319 318 318 326 349 348 347 352 353 352 352 350 349 346 352 349 347 344 342 338 334 332 329 327
321 323 323 321 324 325 326 328 324 324 327 333 337 328 331 329 327 327 321 319 320 320 320 332 349 344 338 345 351 351 351 350 350 350 348 344 340 338 337 332 329 328 326 322
321 323 326 323 320 322 324 326 326 329 329 328 331 334 330 329 328 329 319 319 319 320 321 335 348 348 348 350 350 350 350 348 345 341 341 338 335 334 330 326 326 324 320 318
318 322 327 324 324 324 326 327 325 327 326 331 336 333 325 330 338 336 322 319 319 320 329 343 345 344 343 341 346 347 341 335 333 334 331 327 327 325 322 321 320 319 317 316
318 322 326 328 326 324 327 328 327 328 329 327 327 327 327 329 334 334 335 322 320 322 338 339 335 332 334 336 334 330 329 328 326 326 321 320 319 319 318 318 318 317 315 314
320 322 323 323 324 327 331 332 329 328 328 330 329 332 331 331 329 328 335 341 345 345 343 337 334 330 328 326 324 323 322 321 320 320 319 316 316 317 317 316 315 314 314 310
319 322 322 324 325 326 329 330 329 326 327 328 326 326 325 326 323 322 327 335 339 339 337 333 331 331 329 325 321 319 318 318 317 316 315 315 315 316 315 315 314 312 309 307
321 323 325 326 326 327 329 329 326 329 329 328 331 331 328 324 321 318 320 322 331 331 332 332 329 324 322 321 319 316 316 316 315 315 315 314 314 313 313 312 311 309 307 306
325 323 323 327 327 329 327 325 328 329 327 329 331 333 326 321 318 315 314 316 318 328 327 325 323 321 318 316 315 315 314 314 313 312 312 312 312 311 311 310 308 308 308 305
321 323 322 326 327 327 329 325 327 329 329 325 329 329 330 323 323 318 312 313 315 323 324 321 319 318 317 315 314 313 312 312 311 311 310 310 310 308 308 308 308 307 307 304
318 322 322 325 328 329 326 324 323 325 333 324 326 328 328 328 330 319 311 311 312 317 319 318 317 315 315 314 313 313 312 312 311 311 310 310 310 309 308 308 307 305 304 303
320 324 325 326 326 327 324 322 322 327 329 322 324 326 317 318 315 310 309 310 310 314 317 316 316 316 315 314 314 313 313 312 312 310 310 309 308 307 306 306 305 305 304 303
323 325 325 326 328 327 322 323 326 323 321 321 324 322 315 312 310 309 308 308 308 311 313 314 313 313 312 311 310 309 307 307 307 308 307 306 305 305 306 306 305 305 304 304
326 323 324 323 323 321 321 321 321 319 321 322 322 321 314 312 310 309 308 306 305 305 308 310 310 308 306 306 307 307 307 306 305 305 305 305 306 307 307 306 306 306 306 305
319 321 323 322 323 322 322 320 320 319 319 320 321 320 312 311 309 308 307 306 305 305 304 305 306 305 304 304 304 304 305 305 305 305 304 303 300 301 301 300 299 299 298 298
315 317 319 323 321 321 321 321 320 318 318 319 319 316 311 308 308 308 307 305 305 304 304 303 303 303 302 302 302 303 303 304 301 299 298 297 297 296 295 295 296 297 295 296
316 320 320 320 319 319 320 319 318 318 317 319 318 314 310 307 306 306 307 306 306 305 303 304 304 303 302 302 302 302 302 301 299 297 295 294 292 292 292 292 291 293 294 294
Wind_Speed
11 2 11 15 7 15 11 9 13 16 15 16 17 19 19 19 17 20 20 16 16 8 7 31 24 8 12 33 40 43 39 36 35 27 25 25 15 21 14 16 19 19 17 16
10 15 16 18 17 14 21 12 14 13 15 15 20 20 22 20 17 19 19 17 18 5 10 13 27 34 19 20 34 35 36 38 35 33 26 26 22 22 19 15 18 22 18 14
14 19 20 11 11 12 16 11 16 15 16 13 17 20 17 20 19 19 20 18 16 13 15 13 12 20 26 30 22 37 38 38 35 34 25 25 20 18 17 23 24 20 17 14
9 7 15 4 7 11 17 17 6 9 18 11 5 7 13 16 17 19 18 17 17 14 9 18 20 20 39 46 31 33 34 35 34 32 27 24 21 20 21 25 25 20 16 15
13 18 19 19 14 14 14 2 3 8 10 8 10 3 10 15 15 13 16 15 19 14 10 25 22 27 31 30 34 31 32 30 33 32 30 25 22 20 22 24 22 19 18 17
17 21 17 16 9 12 6 3 2 5 3 6 12 9 8 11 18 13 13 13 15 14 12 25 35 39 35 38 31 29 32 32 31 30 30 27 26 28 27 24 24 21 17 15
12 10 8 6 5 6 5 5 3 3 3 6 4 10 15 9 15 18 20 14 12 14 16 22 27 28 40 41 36 35 35 32 34 32 31 31 30 33 32 27 24 24 22 21
9 9 4 9 8 3 2 3 2 4 3 4 7 11 11 19 23 14 19 13 10 9 13 23 25 23 30 35 36 34 34 31 33 35 34 33 32 32 28 26 25 27 26 22
5 6 14 14 8 10 3 6 4 4 8 4 5 8 9 19 19 15 23 15 9 9 6 19 18 13 23 27 33 34 32 30 32 35 29 31 33 30 27 28 26 26 23 22
3 8 8 16 11 15 5 5 1 2 4 2 8 8 10 8 17 16 25 23 18 10 9 14 21 17 15 23 31 32 32 32 31 30 30 29 29 29 29 28 29 27 25 24
3 3 14 14 2 4 1 2 4 2 4 3 4 4 7 9 11 14 21 26 25 16 15 15 26 31 43 34 31 34 34 33 32 33 32 33 32 32 34 32 30 27 27 27
4 4 8 19 18 10 14 3 7 4 4 4 2 6 10 22 19 13 18 25 24 17 20 16 21 18 25 30 32 36 33 31 34 36 38 35 34 33 32 31 30 29 31 27
5 3 8 10 9 5 6 3 8 1 2 6 5 6 12 17 23 18 20 21 22 20 10 16 17 21 17 18 2 17 32 35 37 38 37 37 37 35 35 34 34 32 31 26
1 2 6 6 13 15 19 13 13 7 4 2 5 14 15 22 27 24 18 12 12 8 17 21 17 13 13 14 19 14 26 32 39 38 33 33 34 37 37 36 35 32 28 25
2 4 11 17 21 15 10 22 6 7 9 6 13 18 17 17 21 17 20 24 17 20 22 20 23 19 18 23 21 29 26 29 33 42 38 30 36 38 40 36 32 28 26 21
5 5 15 14 14 16 11 25 16 11 13 12 17 17 10 16 13 17 18 19 19 16 20 21 20 17 18 29 17 31 27 32 36 37 35 35 37 38 35 34 31 30 26 22
3 4 6 6 18 19 9 18 14 18 17 7 8 4 7 7 13 19 15 18 14 15 12 11 18 15 17 21 35 23 33 33 36 35 33 35 36 34 33 32 31 29 24 20
6 6 4 6 10 4 5 15 15 14 18 21 16 13 11 7 7 16 17 16 15 10 13 12 13 20 24 22 30 33 34 33 33 33 33 33 33 34 34 33 30 27 24 23
4 4 4 3 4 6 10 16 13 10 6 18 19 19 14 9 7 11 15 11 10 8 10 17 25 19 23 27 31 35 31 34 33 30 29 29 32 31 30 30 27 26 26 22
9 3 2 4 4 2 1 18 21 6 1 17 18 18 12 0 3 2 6 7 9 12 16 23 32 22 20 24 31 33 31 31 29 28 27 26 25 27 29 27 25 23 21 21
6 4 2 5 3 5 10 21 13 6 6 16 15 13 10 4 4 4 5 10 14 14 17 24 28 23 21 24 31 32 29 25 26 27 30 31 28 28 28 27 23 22 21 20
1 4 3 4 3 5 11 9 6 2 5 13 12 6 10 8 7 6 8 10 10 10 17 20 24 24 21 25 32 31 29 30 34 33 30 29 29 30 26 24 22 21 18 18
1 3 3 2 3 2 5 3 4 5 9 8 9 4 11 10 8 6 6 9 10 14 16 18 22 26 23 25 31 31 25 31 34 34 31 29 27 23 21 22 17 13 13 12
4 5 3 4 1 5 6 5 3 6 7 10 9 9 11 11 8 8 8 7 8 15 17 19 21 22 22 27 30 31 31 31 29 28 26 25 28 26 23 23 22 26 25 28
5 4 4 2 2 6 4 2 3 5 7 10 9 11 12 10 8 7 8 8 11 15 17 19 19 20 20 26 26 28 29 31 33 31 29 27 26 26 27 26 25 25 22 18
7 2 2 2 1 3 3 5 5 6 5 5 4 10 9 10 10 9 8 12 14 16 19 18 19 19 21 22 25 28 29 31 31 28 27 26 25 25 27 28 27 24 20 19
Wind_Direction
284 184 262 270 284 304 291 286 278 286 291 286 285 285 289 246 243 257 258 253 256 236 237 156 206 96 334 148 150 157 161 159 164 156 167 177 169 184 170 186 186 183 173 181
295 264 257 248 289 266 297 262 269 282 284 289 287 278 284 276 221 236 247 258 245 203 176 150 147 167 239 153 143 155 163 165 169 171 174 184 182 186 190 178 166 169 174 174
284 287 295 209 261 307 273 278 291 283 288 276 285 282 275 285 221 232 236 238 257 224 178 175 139 147 144 283 167 154 163 168 172 177 171 188 193 161 130 143 145 154 166 160
280 324 314 352 243 243 282 265 287 319 303 278 248 291 291 270 233 221 230 236 244 225 187 172 145 148 165 206 247 151 158 170 174 177 176 176 152 138 141 139 138 138 148 146
265 290 297 279 229 245 254 36 239 238 278 306 268 248 262 261 253 216 219 221 232 212 192 153 144 148 174 194 215 174 171 168 173 174 170 158 156 148 151 138 139 148 143 149
284 287 264 251 274 237 118 359 293 239 197 249 225 200 257 231 226 218 213 222 227 202 202 163 157 162 170 196 194 169 174 174 171 172 176 173 164 153 148 153 147 142 142 144
322 326 55 13 289 226 89 44 329 330 181 237 177 193 238 269 226 207 217 217 236 184 184 154 161 173 181 182 176 172 171 174 179 181 178 179 176 173 169 164 157 144 146 134
351 329 46 348 286 299 105 162 164 276 269 325 298 233 234 240 254 220 217 210 212 186 171 163 168 171 166 165 168 172 170 170 175 180 180 178 174 167 166 163 155 147 146 129
324 280 331 294 324 150 151 216 186 229 256 271 253 250 286 225 237 234 211 214 217 214 221 173 154 151 151 166 167 169 168 168 174 177 175 171 167 163 151 147 149 143 132 128
281 288 299 316 314 33 141 135 206 187 307 285 270 214 220 215 230 240 204 206 212 209 229 184 148 149 176 177 171 164 164 166 167 170 155 145 151 148 149 149 143 138 135 133
267 220 293 296 353 246 294 154 79 256 254 258 304 284 27 344 295 278 243 199 206 201 214 194 159 171 181 181 182 171 161 158 156 160 146 138 135 139 142 141 137 132 130 131
106 295 294 297 299 280 199 190 160 177 286 257 260 292 348 344 305 276 191 188 196 203 217 196 132 140 156 166 166 173 149 141 138 137 137 137 138 137 133 129 127 131 128 127
355 5 306 336 339 58 48 309 259 34 113 11 348 278 345 325 356 342 191 177 196 205 142 99 127 138 146 131 130 142 130 121 122 128 128 126 128 129 125 124 126 128 128 123
126 269 274 312 286 283 291 258 244 247 100 250 221 288 322 346 4 357 6 180 187 184 105 101 112 108 109 87 90 89 98 113 118 118 108 109 116 120 122 127 127 128 126 119
257 252 285 297 291 314 356 20 15 259 149 51 337 11 16 356 358 335 37 39 96 113 102 101 112 105 106 92 81 91 93 95 109 112 113 117 119 123 123 123 127 126 120 121
293 294 314 311 308 329 23 22 40 91 112 91 60 32 332 2 347 15 37 42 54 83 95 103 98 100 111 107 107 103 110 105 105 106 116 117 120 119 124 128 126 124 124 120
260 320 312 282 314 309 30 25 24 38 30 42 70 77 74 318 16 21 2 36 37 67 92 99 109 95 94 127 125 135 105 107 107 111 116 116 118 117 122 123 124 122 121 118
308 307 255 281 318 38 143 41 38 29 10 1 10 20 99 82 62 36 20 26 354 76 73 74 91 106 103 106 107 110 112 114 112 109 108 116 120 122 126 125 124 124 124 122
343 297 305 309 291 290 51 359 342 3 336 358 351 355 356 141 59 30 19 18 358 23 84 88 73 80 109 115 116 108 108 107 106 107 113 119 123 122 123 124 125 125 121 119
337 285 300 323 322 282 88 339 321 264 230 355 345 348 353 43 115 297 14 11 33 57 95 103 98 95 98 104 109 107 104 105 109 117 119 119 122 125 126 127 123 120 116 113
338 326 259 339 318 316 349 329 318 61 308 324 330 355 25 60 49 100 34 40 34 56 81 96 104 106 107 109 107 102 106 103 112 114 119 123 128 126 124 121 121 126 127 125
300 313 340 335 322 330 1 345 36 249 278 321 331 53 97 95 88 71 69 60 54 62 73 93 100 95 96 103 102 97 96 108 118 123 124 123 121 119 116 121 127 130 133 146
287 234 282 232 268 306 309 289 261 272 332 331 318 68 116 116 108 103 75 73 70 62 81 93 101 100 93 97 102 102 107 119 119 116 117 116 115 119 132 131 132 146 163 145
264 221 255 332 179 269 213 312 34 12 340 327 320 127 124 124 123 118 107 91 87 83 76 87 97 100 100 104 106 113 119 124 122 119 115 120 118 115 115 117 111 106 104 100
248 286 266 245 280 294 190 248 61 32 6 350 70 99 119 126 126 118 119 111 102 100 100 99 100 105 109 115 118 125 123 126 116 115 119 119 116 114 108 99 95 96 89 96
241 169 198 235 2 247 316 360 70 55 4 354 28 115 118 125 134 125 118 126 118 113 114 109 113 116 124 125 129 127 126 131 127 120 118 115 111 109 111 107 97 93 96 96